Погода в Китченере

Канада     43°26′21″N   80°28′20″W
темп.,
°C
ветер,
м/с
пор.,
м/с
влажн.,
%
обл.,
%
осадки,
мм/ч
давл.,
гПа
погр.,
м
6 мая, чт
чт623:00+2зсз411875 0.0 1019303
02:00+1сз37875 0.0 1020136
05:000сз499267 0.0 1020188
08:00+3сз4876100 0.0 1021295
11:00+9сз565096 0.0 10191120
14:00+11сз45445 0.0 10181769
17:00+11сз444699 0.0 10161720
20:00+8зсз2365100 0.1 101663
7 мая, пт
пт723:00+5ссв2385100 1.4 1016275
02:00+3св3597100 7.3 1015457
05:00+2св4799100 5.3 1014403
08:00+2ссв4899100 8.2 1014305
11:00+3ссв4896100 0.6 1013446
14:00+6св457999 0.8 1012940
17:00+7св2372100 0.2 1011846
20:00+7вюв017882 0.3 101210
8 мая, сб
сб823:00+3зсз118764 0.0 101210
02:00+4сз22895 0.0 101224
05:00+1сз498498 0.0 1013152
08:00+4сз510773 0.0 1014263
11:00+10сз56590 0.0 10141061
14:00+12сз565185 0.5 10141987
17:00+11зсз77546 0.4 10151766
20:00+7зсз47680 0.4 1016173
9 мая, вс
вс923:00+3зсз357589 0.0 101872
02:00+2зсз3471100 0.0 101856
05:00+2ссз22685 0.0 101723
08:00+4с11615 0.0 1017120
11:00+10ююв2357100 0.0 1015964
14:00+11ююв3456100 0.1 10111444
17:00+10юв3472100 0.9 1010866
20:00+7в1189100 2.4 100938
10 мая, пн
пн1023:00+6всв4797100 2.2 1008384
02:00+5ссв4795100 7.2 1006760
05:00+3с599192 4.1 1007358
08:00+4сз587992 4.1 1010350
11:00+9сз777152 0.1 10121219
14:00+10ссз7760100 0.3 10121783
17:00+9сз810525 0.1 10141832
20:00+6сз610725 0.1 1016703